EW2874 Weather Reports


time (UTC)temp
C
wind
direction
speed
KPH
gust
KPH
rain 1hr
cm
rain 24hr
cm
rain mn
cm
humidity
%
barometer
mb
20260505011657 23 281 22.5 35.4 0.00 0.00 0.00 35 1001.3
20260505011534 23 257 24.1 35.4 0.00 0.00 0.00 35 1000.3
20260505011159 23 273 20.9 35.4 0.00 0.00 0.00 35 1001.2
20260505010657 24 281 19.3 35.4 0.00 0.00 0.00 34 1001.1
20260505010155 24 276 19.3 38.6 0.00 0.00 0.00 33 1000.9
20260505005657 25 286 16.1 38.6 0.00 0.00 0.00 31 1000.7
20260505005232 25 256 9.7 16.1 0.00 0.00 0.00 28 1000.5
20260505004159 26 277 6.4 9.7 0.00 0.00 0.00 26 1000.3
20260505002641 26 277 6.4 9.7 0.00 0.00 0.00 25 1000.0
20260505002144 27 277 8.0 11.3 0.00 0.00 0.00 25 1000.1
20260505001628 27 276 8.0 12.9 0.00 0.00 0.00 24 1000.1
20260505001542 26 276 6.4 12.9 0.00 0.00 0.00 25 999.1
20260505001127 27 274 8.0 12.9 0.00 0.00 0.00 25 1000.0
20260505000628 27 271 8.0 12.9 0.00 0.00 0.00 24 1000.1
20260505000132 27 254 9.7 16.1 0.00 0.00 0.00 24 1000.0
20260504235623 27 252 11.3 16.1 0.00 0.00 0.00 22 1000.0
20260504235122 27 244 11.3 17.7 0.00 0.00 0.00 23 1000.0
20260504234625 27 241 12.9 17.7 0.00 0.00 0.00 23 1000.0
20260504233615 28 252 11.3 24.1 0.00 0.00 0.00 22 1000.0
20260504233116 28 245 14.5 24.1 0.00 0.00 0.00 21 1000.0
20260504232113 28 231 14.5 24.1 0.00 0.00 0.00 20 999.9
20260504231631 28 253 9.7 20.9 0.00 0.00 0.00 22 999.0
20260504231604 28 240 12.9 20.9 0.00 0.00 0.00 21 999.9
20260504231109 28 234 16.1 22.5 0.00 0.00 0.00 21 999.9
20260504230057 28 244 12.9 20.9 0.00 0.00 0.00 23 999.9
20260504230002 28 251 11.3 20.9 0.00 0.00 0.00 23 999.0
20260504225545 28 211 11.3 20.9 0.00 0.00 0.00 21 999.9
20260504225042 28 193 9.7 17.7 0.00 0.00 0.00 22 1000.0
20260504224539 28 228 11.3 20.9 0.00 0.00 0.00 22 999.9
20260504224035 28 234 12.9 20.9 0.00 0.00 0.00 21 999.8
20260504223532 28 210 12.9 19.3 0.00 0.00 0.00 22 999.9
20260504223034 28 226 12.9 20.9 0.00 0.00 0.00 22 999.8
20260504222533 28 232 14.5 24.1 0.00 0.00 0.00 23 999.8
20260504222031 28 232 14.5 24.1 0.00 0.00 0.00 21 999.8
20260504221611 28 254 11.3 25.7 0.00 0.00 0.00 21 998.8
20260504221032 28 214 11.3 25.7 0.00 0.00 0.00 21 999.8
20260504220016 28 223 12.9 25.7 0.00 0.00 0.00 23 999.7
20260504215519 28 213 17.7 32.2 0.00 0.00 0.00 21 999.8
20260504214510 28 202 14.5 30.6 0.00 0.00 0.00 22 999.7
20260504214004 28 163 14.5 25.7 0.00 0.00 0.00 25 999.8
20260504213507 28 183 16.1 32.2 0.00 0.00 0.00 24 999.9
20260504213006 28 217 12.9 32.2 0.00 0.00 0.00 25 999.9
20260504211459 28 236 14.5 32.2 0.00 0.00 0.00 24 999.7
20260504210955 28 213 12.9 24.1 0.00 0.00 0.00 25 999.8
20260504210456 28 188 12.9 24.1 0.00 0.00 0.00 26 999.9
20260504210144 28 192 16.1 25.7 0.00 0.00 0.00 26 998.8
20260504205953 28 194 14.5 25.7 0.00 0.00 0.00 27 999.9
20260504204518 28 233 17.7 25.7 0.00 0.00 0.00 27 999.0
20260504204448 28 263 16.1 25.7 0.00 0.00 0.00 28 1000.0
20260504203946 28 222 14.5 24.1 0.00 0.00 0.00 27 1000.0
20260504203453 28 225 16.1 29.0 0.00 0.00 0.00 29 1000.0
20260504202934 28 254 17.7 29.0 0.00 0.00 0.00 29 1000.2
20260504202432 28 229 14.5 25.7 0.00 0.00 0.00 29 1000.2
20260504201337 28 205 16.1 29.0 0.00 0.00 0.00 28 1000.2
20260504195747 28 211 11.3 29.0 0.00 0.00 0.00 32 1000.3
20260504195216 28 221 9.7 19.3 0.00 0.00 0.00 34 1000.3
20260504194648 28 241 9.7 20.9 0.00 0.00 0.00 31 1000.3
20260504194622 27 241 8.0 20.9 0.00 0.00 0.00 31 999.4
20260504194121 28 223 8.0 20.9 0.00 0.00 0.00 31 1000.4
20260504193558 27 178 11.3 24.1 0.00 0.00 0.00 32 1000.3
20260504193034 27 263 12.9 24.1 0.00 0.00 0.00 32 1000.4
20260504193002 27 259 17.7 24.1 0.00 0.00 0.00 33 999.4
20260504192505 27 256 14.5 24.1 0.00 0.00 0.00 34 1000.3
20260504191939 27 225 16.1 24.1 0.00 0.00 0.00 33 1000.3
20260504190845 27 244 11.3 19.3 0.00 0.00 0.00 36 1000.4
20260504190315 27 217 12.9 22.5 0.00 0.00 0.00 34 1000.5
20260504185807 27 221 12.9 22.5 0.00 0.00 0.00 34 1000.5
20260504184736 27 214 12.9 20.9 0.00 0.00 0.00 33 1000.7
20260504184213 27 244 9.7 22.5 0.00 0.00 0.00 34 1000.6
20260504183639 27 165 8.0 16.1 0.00 0.00 0.00 38 1000.6
20260504183111 27 139 8.0 16.1 0.00 0.00 0.00 37 1000.6
20260504183041 27 166 4.8 16.1 0.00 0.00 0.00 37 999.7
20260504182544 27 205 8.0 16.1 0.00 0.00 0.00 39 1000.7
20260504182038 26 185 9.7 17.7 0.00 0.00 0.00 43 1000.7
20260504180528 26 210 9.7 19.3 0.00 0.00 0.00 39 1000.8
20260504180029 26 218 9.7 17.7 0.00 0.00 0.00 39 1000.7
20260504175528 26 207 9.7 19.3 0.00 0.00 0.00 39 1000.8
20260504175029 26 148 9.7 19.3 0.00 0.00 0.00 39 1000.9
20260504174528 26 223 8.0 17.7 0.00 0.00 0.00 40 1000.9
20260504174025 26 204 8.0 17.7 0.00 0.00 0.00 42 1000.9
20260504173526 26 202 8.0 16.1 0.00 0.00 0.00 42 1000.9
20260504173026 25 141 9.7 19.3 0.00 0.00 0.00 42 1001.0
20260504172524 25 200 9.7 19.3 0.00 0.00 0.00 41 1001.1
20260504172021 25 132 8.0 17.7 0.00 0.00 0.00 42 1001.1
20260504171647 25 167 8.0 17.7 0.00 0.00 0.00 43 1000.3
20260504171525 25 197 9.7 17.7 0.00 0.00 0.00 43 1001.1
20260504171023 25 140 9.7 16.1 0.00 0.00 0.00 44 1001.2
20260504170521 25 177 9.7 16.1 0.00 0.00 0.00 44 1001.3
20260504160337 23 196 11.3 22.5 0.00 0.00 0.00 46 1001.4
20260504160149 22 209 8.0 22.5 0.00 0.00 0.00 49 1000.5
20260504150340 21 185 11.3 20.9 0.00 0.00 0.00 52 1001.3
20260504140810 20 147 8.0 17.7 0.00 0.00 0.00 58 1001.5
20260504140303 20 192 8.0 17.7 0.00 0.00 0.00 61 1001.6
20260504130736 17 161 6.4 14.5 0.00 0.00 0.00 65 1001.9
20260504130238 17 125 6.4 12.9 0.00 0.00 0.00 64 1001.9
20260504110516 13 130 8.0 11.3 0.00 0.00 0.00 72 1001.6
20260504110120 13 128 8.0 11.3 0.00 0.00 0.00 72 1001.0
20260504100325 14 117 9.7 14.5 0.00 0.00 0.00 69 1002.3
20260504081532 15 81 3.2 9.7 0.00 0.00 0.00 66 1003.9
20260504081503 15 80 6.4 9.7 0.00 0.00 0.00 66 1003.3
20260504081003 15 65 3.2 8.0 0.00 0.00 0.00 65 1004.2
20260504080441 15 63 4.8 9.7 0.00 0.00 0.00 65 1004.2
20260504070302 16 95 11.3 20.9 0.00 0.00 0.00 57 1004.4
20260504060111 16 88 8.0 11.3 0.00 0.00 0.00 57 1004.7
20260504050738 16 116 3.2 6.4 0.00 0.00 0.00 59 1006.8
20260504050238 16 116 0.0 6.4 0.00 0.00 0.00 55 1006.9
20260504045721 16 116 1.6 6.4 0.00 0.00 0.00 56 1006.9
20260504045222 16 116 4.8 8.0 0.00 0.00 0.00 53 1006.6
20260504044703 16 116 6.4 8.0 0.00 0.00 0.00 53 1006.6
20260504044628 16 116 3.2 8.0 0.00 0.00 0.00 53 1006.2
20260504044214 16 116 6.4 9.7 0.00 0.00 0.00 54 1006.6
20260504043704 16 118 8.0 11.3 0.00 0.00 0.00 54 1006.7
20260504043203 16 121 8.0 12.9 0.00 0.00 0.00 55 1006.8
20260504043053 16 121 6.4 12.9 0.00 0.00 0.00 55 1006.4
20260504042204 16 134 6.4 9.7 0.00 0.00 0.00 54 1007.0
20260504041704 16 290 3.2 6.4 0.00 0.00 0.00 54 1007.1
20260504040703 16 290 1.6 8.0 0.00 0.00 0.00 52 1007.1
20260504040204 17 290 3.2 8.0 0.00 0.00 0.00 51 1007.1
20260504035655 17 290 3.2 6.4 0.00 0.00 0.00 51 1007.0
20260504035156 16 290 1.6 4.8 0.00 0.00 0.00 51 1007.0
20260504033654 17 290 1.6 6.4 0.00 0.00 0.00 50 1007.0
20260504033149 16 290 1.6 6.4 0.00 0.00 0.00 51 1006.7
20260504033146 17 290 3.2 6.4 0.00 0.00 0.00 51 1007.1
20260504032658 17 290 3.2 8.0 0.00 0.00 0.00 51 1007.0
20260504032129 17 290 3.2 8.0 0.00 0.00 0.00 51 1007.1
20260504031632 17 290 4.8 8.0 0.00 0.00 0.00 52 1007.1
20260504031519 16 290 4.8 8.0 0.00 0.00 0.00 52 1006.7
20260504031124 17 290 6.4 8.0 0.00 0.00 0.00 52 1007.0
20260504030623 17 286 6.4 8.0 0.00 0.00 0.00 51 1007.0
20260504030124 16 286 4.8 8.0 0.00 0.00 0.00 52 1007.1
20260504025619 16 286 3.2 8.0 0.00 0.00 0.00 53 1007.1
20260504025121 16 286 0.0 0.0 0.00 0.00 0.00 53 1007.1
20260504023614 17 286 4.8 8.0 0.00 0.00 0.00 51 1007.0
20260504023114 17 286 4.8 8.0 0.00 0.00 0.00 51 1007.1
20260504022607 17 286 3.2 8.0 0.00 0.00 0.00 51 1007.1
20260504022105 17 286 3.2 6.4 0.00 0.00 0.00 53 1007.0
20260504021605 17 286 3.2 4.8 0.00 0.00 0.00 50 1007.0
20260504021544 17 286 3.2 4.8 0.00 0.00 0.00 51 1006.6
20260504021039 17 286 4.8 9.7 0.00 0.00 0.00 52 1007.0
20260504020522 18 286 3.2 9.7 0.00 0.00 0.00 50 1007.0
20260504020020 18 286 0.0 0.0 0.00 0.00 0.00 45 1007.0
20260504015452 18 286 0.0 3.2 0.00 0.00 0.00 44 1007.0
20260504014929 18 286 1.6 6.4 0.00 0.00 0.00 44 1007.1
20260504014359 18 286 3.2 4.8 0.00 0.00 0.00 45 1007.1
20260504013831 19 286 3.2 6.4 0.00 0.00 0.00 44 1007.2
20260504013301 20 281 3.2 3.2 0.00 0.00 0.00 45 1007.2
20260504012734 20 281 1.6 3.2 0.00 0.00 0.00 40 1007.2
20260504012208 20 281 1.6 3.2 0.00 0.00 0.00 41 1007.2